GEFSSE_con_cape1000_132.txt.gz
Probability
87 97 100 100 100 100 100 100 100 100 100 100 100 100 100 97 97 94 97 97 97 97 90 87 87 90 90 87 87 90 87 87 87 90 87 90 94 90 94 94 90 74 94
90 97 100 100 100 100 100 100 100 100 100 100 100 100 100 100 100 97 97 100 97 94 94 94 84 87 87 97 94 94 90 94 90 90 94 94 90 87 90 94 87 81 90
97 97 100 100 100 100 100 100 100 100 100 100 100 100 100 100 100 97 97 100 94 94 90 94 84 84 90 97 97 100 100 100 90 87 87 87 87 94 90 90 97 97 87
100 100 100 100 100 100 100 100 100 100 100 100 100 100 100 100 97 97 97 97 97 94 84 87 84 87 90 97 94 97 97 94 90 87 65 71 87 94 94 94 94 90 90
97 97 100 100 100 100 97 100 100 100 100 100 100 100 100 100 97 97 97 97 94 94 90 87 84 77 87 94 94 97 97 97 94 71 61 65 87 94 97 97 97 90 94
97 97 97 100 100 97 97 97 100 100 100 100 100 100 100 97 97 97 97 97 94 90 90 84 87 84 90 94 97 97 97 97 81 48 58 68 94 97 94 94 94 94 90
87 97 97 100 100 100 100 100 100 100 100 100 100 100 100 100 94 94 94 94 100 94 84 84 84 81 81 90 94 94 94 94 39 42 48 68 97 97 97 100 94 90 84
84 90 97 97 100 100 100 100 100 100 100 100 100 100 100 100 97 97 97 97 94 94 94 87 87 84 81 87 94 90 94 90 58 39 55 77 94 100 100 100 100 97 90
77 81 84 87 94 97 100 97 97 100 100 100 100 100 100 97 97 97 97 97 97 94 94 94 87 87 81 84 90 97 94 81 32 55 55 74 97 100 97 97 97 97 97
65 68 71 77 90 94 97 97 100 100 97 100 97 97 90 94 94 97 97 97 97 97 97 94 94 94 90 90 97 94 97 77 26 52 61 74 97 97 97 97 97 97 94
65 65 65 68 74 84 90 97 97 94 94 94 97 97 97 90 90 94 90 97 97 97 97 97 94 94 97 94 97 97 87 35 16 52 58 81 97 97 97 97 97 97 97
52 58 61 61 61 74 81 77 81 84 84 84 81 81 71 68 68 84 90 94 94 97 94 100 100 100 100 84 87 94 61 29 23 45 52 87 100 100 97 97 97 97 97
48 52 52 58 58 58 65 61 65 65 65 61 65 61 61 52 52 61 65 68 68 74 77 84 94 87 94 81 71 61 45 39 42 45 52 87 100 100 100 94 97 97 97
35 42 45 52 52 55 58 58 58 55 52 52 52 52 35 26 29 35 35 35 42 39 48 55 65 65 68 65 61 52 48 48 35 45 48 94 100 100 100 97 94 94 97
32 39 35 39 39 42 29 39 42 39 39 32 32 19 19 16 13 13 10 16 16 23 26 26 32 32 39 48 48 39 48 48 26 32 45 84 94 94 94 94 97 90 97
13 13 23 29 26 19 23 23 19 13 13 10 6 13 13 6 3 6 10 10 6 6 10 6 3 6 16 23 26 35 35 35 32 35 35 55 87 90 87 90 94 97 97
6 10 10 10 10 10 10 10 3 0 3 6 10 10 10 3 3 3 3 3 3 3 3 3 6 3 3 6 3 6 13 19 39 32 39 45 58 84 84 87 90 97 97
6 3 6 6 10 6 6 3 3 0 0 0 0 0 3 3 3 3 3 3 3 3 3 3 3 3 3 3 3 0 3 0 13 26 35 32 45 42 74 77 90 94 90
3 3 3 10 3 0 0 0 0 0 0 0 0 0 0 0 3 3 3 3 3 3 3 3 3 3 3 3 3 3 3 0 0 3 10 26 32 35 42 52 74 81 81
3 0 0 0 0 0 0 0 0 0 0 0 0 0 0 0 0 0 3 3 3 3 3 3 3 0 3 3 3 3 3 3 0 0 0 10 13 29 29 32 55 55 65
0 0 0 0 0 0 0 0 0 0 0 0 0 0 0 0 0 0 0 0 0 3 3 3 3 0 0 0 0 0 0 0 0 0 0 3 10 13 19 26 29 42 55
0 0 0 0 0 0 0 0 0 0 0 0 0 0 0 0 0 0 0 0 0 0 0 0 3 0 0 0 0 0 0 0 0 0 0 0 0 3 10 6 10 19 29
0 0 0 0 0 0 0 0 0 0 0 0 0 0 0 0 0 0 0 0 0 0 0 0 0 0 0 0 0 0 0 0 0 0 0 0 0 0 3 10 6 13 19
0 0 0 0 0 0 0 0 0 0 0 0 0 0 0 0 0 0 0 0 0 0 0 0 0 0 0 0 0 0 0 0 0 0 0 0 0 0 0 0 6 6 13
0 0 0 0 0 0 0 0 0 0 0 0 0 0 0 0 0 0 0 0 0 0 0 0 0 0 0 0 0 0 0 0 0 0 0 0 0 0 0 0 3 3 3
0 0 0 0 0 0 0 0 0 0 0 0 0 0 0 0 0 0 0 0 0 0 0 0 0 0 0 0 0 0 0 0 0 0 0 0 0 0 0 0 0 0 3

GEFSSE_con_cape1000_138.txt.gz
Probability
55 94 100 100 100 100 100 100 100 100 100 100 100 100 100 97 87 90 90 84 84 90 90 84 81 87 84 84 81 81 87 87 84 81 84 90 90 90 90 90 84 77 90
71 100 100 100 100 100 100 100 100 100 100 100 100 100 100 97 97 87 87 84 84 87 87 87 87 84 87 90 84 87 90 87 87 84 84 90 94 90 90 84 90 77 90
84 100 100 100 100 100 100 100 100 100 100 100 100 100 100 97 94 87 87 87 94 87 81 87 84 94 90 87 90 94 90 87 87 84 84 81 87 94 90 94 94 90 94
84 97 97 100 100 100 100 100 100 100 100 100 100 100 100 100 90 90 94 90 90 87 87 87 84 87 90 87 90 94 90 87 87 84 68 58 81 90 94 94 97 97 94
81 94 100 100 100 100 100 100 100 100 100 100 100 100 100 97 94 94 94 90 94 87 84 84 84 90 84 90 97 97 90 84 71 71 58 77 87 94 100 100 97 97 94
77 87 100 100 100 100 100 97 100 100 100 100 100 100 97 94 90 97 97 90 84 87 81 87 81 77 87 84 90 97 94 84 74 42 71 68 87 94 94 97 97 94 94
77 87 94 94 97 100 100 100 100 100 100 100 100 100 100 97 97 90 90 94 90 81 84 81 77 81 77 87 90 94 94 90 48 48 68 71 94 94 94 97 97 94 97
74 84 94 94 94 94 100 100 100 100 100 100 100 94 97 97 97 94 90 90 87 84 81 74 74 74 77 90 87 87 84 87 29 19 48 81 94 94 97 100 97 94 97
74 81 87 77 90 97 94 97 97 97 100 100 97 94 94 94 94 94 97 90 90 87 84 81 77 71 74 81 84 84 84 87 45 39 39 81 97 97 97 87 90 87 94
84 87 87 81 81 84 87 94 94 97 97 97 94 90 94 90 90 90 94 94 87 84 87 87 77 84 81 90 84 84 77 71 58 42 42 94 97 94 94 94 94 87 90
77 84 84 74 77 77 81 77 90 90 90 90 90 87 90 81 71 81 84 94 90 87 84 87 87 90 97 90 94 87 81 68 52 52 74 94 97 87 87 94 90 90 94
74 81 81 81 74 71 74 77 87 74 87 81 84 81 87 84 84 68 81 94 90 90 87 87 87 87 71 65 87 81 68 58 61 65 87 94 97 97 97 94 94 94 90
81 77 74 74 77 74 84 77 84 77 84 74 74 81 84 71 74 65 71 77 81 84 81 84 77 74 61 52 71 55 61 45 58 55 84 100 100 97 94 97 97 97 94
52 55 65 65 71 74 65 61 71 65 74 61 68 65 68 71 74 65 71 74 84 84 81 74 77 71 71 68 52 58 45 52 61 71 97 100 97 97 97 97 97 97 97
45 48 48 61 61 71 71 68 61 61 58 65 68 65 61 52 61 65 68 68 65 71 65 77 71 84 74 58 52 58 48 52 61 61 94 97 97 97 94 87 90 97 97
42 42 42 42 52 58 61 68 65 52 61 48 52 55 61 48 61 65 61 65 55 61 58 58 71 74 74 71 65 68 68 52 58 71 81 97 97 97 90 90 87 90 90
35 35 32 29 35 39 39 42 45 52 48 42 35 42 39 42 45 39 35 45 42 42 48 52 58 58 65 58 61 55 68 68 61 61 68 90 90 87 90 90 84 94 90
23 23 26 16 29 32 35 42 48 39 39 35 35 35 35 29 26 35 32 26 29 32 35 42 45 45 52 52 58 58 55 68 58 68 61 74 87 71 81 77 74 77 84
16 29 29 29 32 29 29 29 32 26 23 19 26 23 26 19 19 23 16 26 26 19 16 13 26 39 42 42 39 61 48 55 65 55 52 61 68 74 81 74 71 68 71
23 23 26 19 19 19 13 19 16 13 13 10 10 26 16 13 10 13 19 26 19 16 16 19 23 26 23 35 13 13 26 29 45 42 42 39 61 61 61 55 65 71 65
16 16 19 16 13 10 10 6 6 3 6 10 13 13 6 13 13 10 3 6 6 6 10 6 13 10 16 13 10 10 19 23 19 32 23 35 26 39 48 55 68 65 68
6 16 13 10 6 10 13 10 6 3 3 3 3 13 10 10 3 0 3 3 3 10 10 6 13 6 10 10 10 6 6 6 13 6 10 16 26 42 42 32 55 61 61
3 6 3 10 10 6 6 0 0 3 3 0 0 3 3 3 3 0 3 0 3 10 3 6 10 10 3 6 6 10 3 0 13 6 10 13 23 29 26 29 35 42 48
3 6 10 10 6 6 6 3 3 0 0 3 3 0 0 0 0 0 0 0 0 3 0 0 3 6 10 6 3 6 10 3 0 3 6 3 6 13 16 10 13 26 29
0 6 6 6 10 6 6 3 3 0 0 0 0 0 0 0 0 0 0 0 0 0 0 0 0 3 6 6 6 0 0 0 3 0 0 3 3 3 6 10 16 13 19
6 6 6 16 10 6 6 6 0 0 0 0 0 0 0 0 0 0 0 0 0 0 0 0 6 0 3 3 3 3 0 0 0 0 0 0 3 3 0 3 3 10 16

GEFSSE_con_cape1000_144.txt.gz
Probability
71 87 100 100 100 100 100 100 100 100 100 100 97 97 97 97 90 94 94 94 94 90 81 84 84 87 87 87 84 81 81 84 81 84 81 81 84 87 87 90 94 81 90
74 87 100 100 100 100 100 100 100 100 100 100 100 100 94 94 97 94 94 97 87 77 77 84 87 90 90 90 87 81 81 77 81 87 90 84 90 94 94 90 94 84 90
84 90 100 100 100 97 97 100 100 100 100 100 100 100 90 90 90 90 94 90 94 84 84 81 87 84 87 90 81 81 77 81 81 87 87 52 77 84 87 94 94 90 87
81 87 97 100 100 100 100 100 100 100 100 100 100 97 94 90 81 77 77 90 90 77 81 81 81 84 84 87 81 81 84 81 71 77 77 39 45 84 87 90 90 90 84
84 90 100 100 100 100 100 100 100 100 100 100 97 94 90 90 84 81 81 84 81 81 74 74 77 77 87 87 77 77 81 77 77 84 71 65 77 90 90 94 90 87 87
81 90 97 100 100 100 100 100 100 100 100 97 97 94 90 90 90 87 84 81 84 74 74 74 71 81 84 81 77 74 71 81 81 77 77 71 87 94 100 94 87 94 90
84 87 97 97 97 100 100 100 100 100 97 97 97 94 90 87 81 81 77 81 77 71 77 77 71 68 71 68 71 68 77 81 77 74 84 90 94 94 97 94 94 94 90
87 84 97 97 94 94 97 97 100 100 97 97 97 94 90 87 84 87 77 77 77 71 71 68 61 68 68 61 61 65 71 81 71 65 84 84 94 97 97 97 97 97 97
87 90 90 84 94 94 94 94 97 94 97 97 94 87 84 87 84 87 84 74 61 58 48 58 58 65 65 58 55 65 71 94 81 68 77 84 94 100 97 90 94 97 90
84 74 90 87 90 90 90 94 94 90 94 94 94 90 90 90 87 87 90 90 74 55 55 58 61 58 55 55 65 68 81 87 45 58 74 87 97 100 90 87 87 94 94
84 84 81 81 87 77 74 84 94 90 87 90 94 94 87 94 87 87 87 94 74 65 71 65 65 68 55 68 84 87 81 58 42 68 77 94 94 97 90 87 87 90 90
77 81 84 81 81 71 74 87 90 87 94 94 94 84 94 94 97 84 84 94 77 74 71 68 81 81 65 71 81 87 48 48 42 71 71 94 94 97 94 94 90 90 87
74 68 77 81 84 81 81 84 87 90 90 87 84 87 90 87 87 87 90 87 94 77 87 81 81 68 81 84 81 71 55 42 35 65 77 97 94 94 94 94 94 94 90
65 74 71 81 81 81 84 84 84 81 81 77 81 77 84 90 87 90 87 81 84 84 90 87 90 81 77 77 74 71 61 61 52 61 77 94 94 94 97 97 97 97 90
58 71 74 77 74 71 68 74 68 74 74 74 68 68 71 74 81 81 81 77 74 71 74 81 81 71 61 58 48 58 68 71 65 61 84 84 90 94 94 97 94 94 97
48 52 55 68 65 65 71 74 68 68 77 68 74 58 61 68 77 81 71 77 65 71 74 77 61 65 65 65 55 61 65 71 74 77 68 81 90 94 97 90 90 94 94
48 52 52 55 58 61 61 61 61 58 58 61 65 61 61 58 65 68 65 71 68 65 65 61 58 68 55 52 48 52 58 58 68 68 71 74 81 84 97 90 87 87 87
39 48 39 39 45 48 52 58 55 48 58 61 61 42 52 45 45 55 52 45 48 55 55 61 58 48 45 52 55 52 48 58 65 68 71 74 71 58 74 77 77 81 84
48 48 45 48 42 39 45 52 45 45 45 48 48 42 42 39 29 35 52 45 39 45 45 32 45 42 45 42 42 42 48 45 52 48 45 61 58 61 61 61 71 71 84
35 32 32 35 35 35 39 48 42 32 26 39 39 39 29 29 19 29 35 32 29 35 45 32 35 45 45 39 13 16 45 52 42 52 42 48 61 58 58 55 58 58 65
32 29 32 26 32 39 45 35 39 26 26 26 26 23 23 19 19 16 23 35 29 35 32 23 23 19 32 32 23 23 32 42 35 39 48 45 35 48 48 55 45 45 52
19 23 42 35 35 29 39 42 39 26 19 23 16 13 6 13 16 6 26 23 23 23 19 23 16 23 19 19 16 13 16 23 32 16 39 32 29 42 35 26 42 42 39
19 35 23 45 42 26 23 23 26 29 19 16 19 13 6 10 13 16 16 19 19 16 19 23 26 16 13 13 10 13 10 3 6 23 23 19 32 39 29 29 32 39 39
23 23 35 39 35 23 10 19 13 23 19 19 16 13 6 6 3 6 3 10 10 13 10 6 19 16 16 13 13 13 13 16 10 3 6 13 26 19 19 10 16 19 19
19 23 23 39 39 23 23 16 13 16 10 10 3 6 6 13 3 3 3 6 6 10 6 6 13 16 16 10 10 6 10 3 6 3 0 3 6 10 13 10 16 16 13
16 19 23 39 35 29 23 13 10 6 3 3 0 6 10 10 6 0 3 3 3 0 0 0 3 3 13 10 10 10 10 0 0 3 0 0 3 10 3 10 13 16 10

GEFSSE_con_cape1000_150.txt.gz
Probability
94 100 100 100 100 100 100 100 100 100 100 100 97 97 97 97 94 94 94 94 94 94 90 87 94 94 90 90 90 87 90 87 81 71 77 71 71 84 87 84 81 61 90
94 100 100 100 100 100 100 100 100 100 100 100 97 97 100 100 100 97 94 94 94 87 87 87 94 94 90 90 90 87 87 90 90 81 90 84 87 84 84 94 90 77 94
94 100 100 100 100 100 100 100 100 100 100 100 100 100 97 97 100 100 94 90 87 87 87 84 90 87 87 87 87 90 90 90 84 81 71 48 81 87 90 84 87 87 87
97 100 100 100 100 100 100 100 100 100 100 100 100 100 97 97 97 100 97 94 90 90 87 87 87 90 84 87 84 87 87 90 87 71 16 26 48 87 90 87 90 90 87
94 97 100 100 100 100 100 100 100 100 100 100 100 100 97 97 97 94 94 97 90 87 90 87 90 84 87 90 84 84 81 90 87 39 19 29 61 94 87 90 84 90 87
84 94 100 100 100 100 100 100 100 100 100 100 100 100 97 97 94 97 94 87 90 84 87 87 84 81 77 87 87 77 81 77 55 16 19 42 71 97 90 87 90 90 90
87 94 97 100 100 100 100 100 100 100 100 100 100 100 100 94 94 94 94 90 84 87 84 84 81 74 71 74 90 84 84 71 26 16 23 45 87 97 90 90 90 84 81
81 94 94 97 97 100 100 100 100 100 97 97 97 94 94 94 94 90 94 90 87 81 84 77 71 68 68 74 81 81 90 77 39 23 19 55 84 97 90 94 97 90 81
84 87 90 94 94 97 97 100 100 100 100 100 100 97 97 94 90 90 87 84 81 77 77 68 65 65 61 68 74 87 87 74 6 16 16 65 94 97 94 94 94 94 87
81 81 84 84 87 87 94 97 97 97 100 100 100 97 97 97 87 94 100 94 81 74 77 68 61 55 61 65 74 87 81 45 3 19 23 77 94 90 90 94 90 90 87
68 74 77 81 77 81 81 94 94 94 97 94 94 94 87 61 58 77 81 87 77 81 77 74 61 58 58 68 84 84 42 0 13 16 26 84 94 90 90 87 90 90 87
45 52 52 58 65 58 74 77 68 71 68 61 61 65 42 29 32 55 74 87 84 81 81 81 81 71 55 16 23 42 13 0 13 16 39 84 90 94 94 87 81 87 87
35 39 39 45 35 35 45 48 45 39 39 39 42 35 26 23 16 39 42 58 58 61 45 58 65 39 35 19 13 13 6 13 6 16 32 84 84 90 90 94 87 84 84
35 35 42 42 39 35 35 35 35 35 32 29 32 26 19 19 10 13 16 16 16 10 16 13 23 19 19 16 16 13 10 10 10 13 26 81 87 90 94 90 94 87 90
23 26 32 35 32 35 35 35 32 32 32 29 23 19 19 16 3 6 3 3 3 6 10 6 3 6 6 6 10 10 10 16 13 16 19 74 87 87 90 87 87 90 87
23 23 23 26 32 29 26 23 23 26 26 26 23 19 10 6 3 3 3 3 3 3 3 3 3 3 3 3 3 3 6 13 13 6 16 55 87 87 87 90 90 87 87
19 19 23 19 23 19 16 16 23 19 26 23 16 13 10 6 3 3 3 3 3 3 3 3 3 3 3 3 3 3 3 6 13 10 10 29 45 87 87 90 90 94 94
19 16 19 26 19 16 16 16 13 13 10 10 10 10 6 3 3 6 6 3 3 3 3 0 0 3 3 3 0 3 3 0 0 10 13 16 26 42 68 84 87 90 94
19 19 16 23 16 13 13 13 10 10 6 3 3 3 3 3 0 0 0 0 0 0 0 0 0 0 0 0 0 0 0 0 0 0 10 13 13 19 29 52 87 84 87
10 19 19 16 6 3 6 6 0 0 3 3 3 3 6 3 0 0 0 0 0 0 0 0 0 0 0 0 0 0 0 0 0 0 3 6 6 16 19 26 32 45 77
6 13 13 10 0 0 3 3 0 0 0 3 0 0 0 0 0 0 0 0 0 0 0 0 0 0 0 0 0 0 0 0 0 0 0 0 3 13 13 16 16 23 32
3 10 13 10 6 0 0 0 0 0 0 0 0 0 0 0 0 0 0 0 0 0 0 0 0 0 0 0 0 0 0 0 0 0 0 0 0 0 6 16 13 16 13
3 6 10 10 6 3 0 0 0 0 0 0 0 0 0 0 0 0 0 0 0 0 0 0 0 0 0 0 0 0 0 0 0 0 0 0 0 0 0 3 6 10 6
3 3 3 3 0 0 0 0 0 0 0 0 0 0 0 0 0 0 0 0 0 0 0 0 0 0 0 0 0 0 0 0 0 0 0 0 0 0 0 0 3 3 6
0 0 0 0 0 0 0 0 0 0 0 0 0 0 0 0 0 0 0 0 0 0 0 0 0 0 0 0 0 0 0 0 0 0 0 0 0 0 0 0 0 0 3
0 0 0 3 0 0 0 0 0 0 0 0 0 0 0 0 0 0 0 0 0 0 0 0 0 0 0 0 0 0 0 0 0 0 0 0 0 0 0 0 0 0 0

GEFSSE_con_cape1000_156.txt.gz
Probability
55 87 100 100 100 100 100 100 100 100 100 100 97 97 100 94 94 90 87 87 87 87 84 74 74 77 81 77 84 81 77 77 74 71 74 74 71 77 87 84 74 61 87
65 94 100 100 100 100 100 100 100 97 97 100 100 100 100 97 94 94 94 94 90 87 87 87 87 84 90 84 84 84 84 77 81 77 74 74 68 77 87 77 68 65 87
87 94 100 100 100 100 100 100 97 97 100 100 100 100 100 100 97 97 94 87 90 87 90 90 90 94 87 84 87 90 87 77 77 77 77 55 61 81 84 84 84 87 84
90 94 100 100 100 100 100 100 97 100 100 100 100 100 100 100 100 94 90 90 90 94 94 94 87 81 84 84 87 87 90 84 84 74 39 48 55 81 81 81 84 81 84
94 94 100 100 100 100 100 100 97 100 100 100 100 100 100 100 100 97 94 94 90 94 87 77 77 77 77 81 90 90 90 87 84 39 35 48 74 84 81 81 84 87 90
90 94 100 100 100 100 100 100 97 100 100 100 100 100 100 97 97 94 94 94 94 87 84 77 77 74 84 87 87 94 90 77 42 23 48 61 77 90 84 84 84 87 90
94 94 100 100 97 97 97 100 100 100 100 100 100 100 100 97 94 90 84 90 87 87 77 74 71 74 84 87 90 84 81 74 16 29 48 65 77 94 87 87 87 90 84
84 94 97 100 97 97 97 97 100 100 100 100 100 97 94 94 90 90 84 84 84 84 74 71 71 68 71 81 87 94 74 65 35 29 52 58 97 94 90 84 84 90 84
84 87 87 94 94 94 97 100 100 100 100 100 94 94 90 90 87 90 84 81 81 74 71 74 58 65 68 77 87 90 87 65 16 35 35 65 94 97 90 90 94 84 84
84 84 84 84 84 94 94 97 100 100 100 100 100 90 90 90 87 87 87 87 81 58 55 61 61 61 61 68 77 84 94 61 16 29 48 74 97 90 90 87 90 90 84
68 74 74 77 71 74 84 90 90 94 97 97 87 87 87 65 65 81 87 77 71 58 61 52 45 42 58 55 68 84 55 13 13 32 55 87 94 87 90 87 81 84 81
65 61 65 68 71 71 87 81 84 71 71 68 55 58 39 32 32 58 74 77 65 68 71 74 68 65 39 19 35 39 23 13 16 26 48 90 94 87 87 90 77 81 84
45 61 45 52 61 58 52 52 45 45 42 45 39 32 26 16 29 26 32 48 48 61 45 55 52 32 26 19 16 16 10 19 26 29 48 90 90 81 77 77 77 77 81
32 29 39 35 39 29 35 42 29 29 29 29 26 19 13 10 10 6 10 16 16 19 16 13 10 19 19 19 13 16 13 19 19 35 45 87 87 84 77 77 74 81 84
29 26 26 35 32 26 29 32 26 23 23 26 19 13 13 13 6 3 0 3 10 6 6 6 6 3 6 10 10 16 16 23 19 26 29 81 84 87 87 77 74 74 77
19 19 23 26 23 26 26 23 23 23 19 19 23 19 13 10 6 3 3 3 6 3 3 3 3 3 3 3 3 13 13 16 23 29 26 48 84 87 87 84 77 71 77
10 13 10 13 19 16 16 13 16 13 13 16 19 16 13 6 3 0 3 3 3 3 3 3 3 3 3 3 3 3 3 10 19 23 23 39 45 71 81 81 81 74 71
13 13 13 16 16 13 13 13 13 10 13 13 10 10 6 6 3 0 0 0 0 3 0 0 3 3 3 3 3 0 3 3 6 16 13 29 42 42 65 68 81 84 74
10 13 13 13 16 13 13 13 10 6 6 6 6 6 6 6 3 0 0 0 0 0 0 0 0 0 0 3 0 0 0 0 3 10 13 23 26 29 42 48 81 81 74
6 6 10 10 10 10 6 6 6 3 10 6 6 6 6 0 0 0 0 0 0 0 0 0 0 0 0 0 0 0 0 0 0 3 3 16 13 13 29 35 45 48 71
6 3 3 6 3 6 6 3 6 6 3 0 3 3 0 0 0 0 0 0 0 0 0 0 0 0 0 0 0 0 0 0 0 0 3 3 6 13 13 23 32 29 32
6 0 0 3 3 0 0 3 3 3 0 0 3 3 0 0 0 0 0 0 0 0 0 0 0 0 0 0 0 0 0 0 0 0 0 3 3 3 13 16 19 19 16
3 0 0 0 0 0 0 0 3 0 0 0 0 0 0 0 0 0 0 0 0 0 0 0 0 0 0 0 0 0 0 0 0 0 0 0 3 3 3 6 10 13 16
0 0 0 0 0 0 0 0 0 0 0 0 0 0 0 0 0 0 0 0 0 0 0 0 0 0 0 0 0 0 0 0 0 0 0 0 0 0 3 3 3 10 6
3 3 0 0 0 0 0 0 0 0 0 0 0 0 0 0 0 0 0 0 0 0 0 0 0 0 0 0 0 0 0 0 0 0 0 0 0 0 0 0 3 3 3
3 3 0 0 0 0 0 0 0 0 0 0 0 0 0 0 0 0 0 0 0 0 0 0 0 0 0 0 0 0 0 0 0 0 0 0 0 0 0 0 0 0 3

GEFSSE_con_cape1000_162.txt.gz
Probability
35 55 94 97 100 100 100 100 100 100 100 100 97 90 90 90 90 84 84 81 77 68 71 81 68 74 81 84 84 87 77 77 77 77 81 81 84 81 81 81 74 48 87
42 68 100 100 100 100 100 97 100 100 100 100 100 97 97 94 90 94 90 87 81 77 77 84 90 87 90 87 81 81 74 74 74 77 77 74 77 77 81 81 81 74 81
45 81 94 100 100 100 97 97 100 97 100 100 100 97 97 94 94 94 90 84 84 84 87 84 90 94 87 84 84 81 81 77 77 74 71 52 58 71 77 84 84 84 77
55 87 90 100 100 100 97 97 97 97 100 100 100 100 94 94 94 94 94 90 90 90 84 84 84 87 87 84 81 77 81 81 77 71 39 35 39 74 84 90 84 84 81
65 90 100 100 100 97 97 97 97 97 100 100 100 100 97 94 94 94 94 94 90 87 87 81 84 84 87 81 84 77 81 81 48 42 39 52 74 84 90 90 87 81 81
65 90 100 100 97 97 97 94 97 97 100 100 100 100 100 97 94 97 94 90 84 87 87 81 81 81 77 84 90 77 74 65 42 26 52 55 71 94 94 87 84 84 81
74 87 100 100 97 97 97 94 97 100 100 100 100 100 100 94 90 94 90 81 81 84 84 84 81 81 81 87 87 84 71 39 19 26 48 61 90 87 90 87 90 84 77
71 84 97 100 100 97 97 97 100 100 100 100 100 100 100 97 94 87 87 87 77 77 77 81 77 81 77 90 90 77 61 48 16 10 32 68 87 90 81 87 84 77 77
71 84 90 97 100 97 97 97 100 97 100 100 97 94 97 97 94 84 81 74 71 71 77 71 77 81 84 81 81 71 58 35 13 16 13 71 84 84 77 81 84 77 81
81 84 90 94 94 97 97 97 97 97 97 97 97 94 97 90 81 77 81 68 61 65 74 65 61 74 71 74 74 77 65 45 13 13 23 61 90 84 74 77 77 74 77
77 87 94 94 90 84 77 84 94 97 94 87 94 94 90 71 65 71 65 65 61 52 55 61 61 45 48 68 74 74 65 45 19 19 35 74 87 71 61 68 74 77 77
77 77 94 87 87 65 65 81 87 77 84 74 74 65 65 71 61 48 68 65 58 61 55 52 52 45 42 45 58 68 58 39 29 29 55 87 84 71 61 65 74 77 77
77 77 87 90 87 74 90 87 87 81 90 74 74 71 81 65 48 48 61 77 84 61 42 55 39 29 29 35 52 42 39 42 55 35 52 84 84 81 71 68 71 74 77
71 74 84 90 94 94 87 87 81 74 84 74 84 65 68 61 58 68 84 52 58 58 55 45 52 35 39 35 42 39 32 48 58 55 90 74 77 84 74 74 74 74 65
65 68 81 84 90 90 90 87 65 77 68 68 74 65 52 42 48 48 65 65 48 48 48 52 58 55 52 52 39 32 26 45 42 48 81 77 81 77 68 61 61 58 61
58 61 71 74 77 87 87 84 74 65 74 48 55 45 52 39 58 61 61 52 42 61 55 55 35 52 42 35 45 45 48 39 55 55 71 81 68 77 74 55 52 45 48
58 58 65 65 65 77 68 68 61 55 48 55 55 61 55 52 55 52 45 52 48 45 65 68 42 42 52 29 42 42 39 42 42 55 52 65 58 61 55 52 61 55 61
58 58 61 39 58 65 68 71 55 45 52 58 61 61 55 58 55 58 45 45 48 45 48 52 23 26 26 42 48 39 29 48 35 39 42 45 58 52 61 61 55 55 61
52 61 55 48 48 48 61 68 61 61 58 55 55 58 65 55 48 48 45 52 48 32 29 29 23 29 26 32 29 39 26 35 39 26 29 29 48 48 61 61 58 55 55
48 48 52 58 52 55 58 58 61 61 58 55 48 48 39 42 42 42 45 48 26 19 32 42 39 42 29 42 3 10 26 23 32 42 26 35 35 29 32 42 52 52 48
42 45 52 55 58 68 58 55 52 45 48 48 39 35 23 29 26 32 26 32 26 23 23 16 16 13 19 26 23 29 16 6 32 26 23 29 23 26 26 35 42 42 39
39 39 52 55 45 58 58 58 48 39 39 45 23 35 26 23 19 10 19 19 23 32 23 19 29 19 23 19 26 19 6 19 10 0 19 23 16 26 23 13 32 52 42
35 39 29 48 58 52 45 42 29 29 29 23 23 26 23 19 13 13 6 10 13 16 19 23 19 13 13 13 13 6 10 13 10 3 3 13 16 16 19 32 23 29 35
32 35 42 48 58 61 42 35 26 29 23 29 26 16 19 13 6 6 6 3 6 10 10 10 13 16 13 10 10 6 0 6 6 13 3 6 10 13 10 6 6 23 19
26 26 29 42 55 52 42 42 35 26 23 26 23 29 19 13 6 6 6 6 3 6 10 3 10 3 6 16 16 6 0 3 0 0 6 6 10 6 6 6 6 13 16
19 19 32 42 48 48 42 35 29 19 19 19 23 19 16 10 6 6 6 6 6 6 6 6 3 6 10 10 10 0 0 0 0 0 0 3 10 3 3 6 6 6 10